[[{"header":{"parameterUnit":"m.s-1","parameterCategory":1,"la1":30.2991,"la2":30.254,"lo1":-89.0895,"lo2":-89.0444,"dy":0.0017,"dx":0.0017,"nx":28,"ny":28,"refTime":"2025-07-21T21:00:00:Z","depth":0,"parameterNumber":2,"parameterNumberName":"U-component_of_WINDS"},"data":[0,0,0,0,0,0,0,0,0,0,0,0,0,0,0,0,0,0,0,0,0,0,0,0,0,0,0,0,0,0,0,0,0,0,0,0,0,0,0,0,0,0,0,0,0,0,0,0,0,0,0,0,0,0,0,0,0,0,2.748,2.748,0,2.7516,2.7516,2.7516,2.7476,2.7475,2.7473,2.7472,2.7509,2.7511,2.7514,0,0,0,0,0,0,0,0,0,0,0,0,0,2.738,2.7382,2.748,2.748,2.7481,2.7515,2.7516,2.7516,2.7477,2.7475,2.7473,2.7471,2.7508,2.7511,2.7514,0,0,0,0,0,0,0,0,0,0,0,0,0,2.742,2.7382,2.748,2.7465,2.7464,2.7515,2.7516,2.7517,2.7477,2.7475,2.7473,2.747,2.7507,2.7511,2.7514,2.7582,0,0,2.7525,2.7527,0,0,0,0,0,0,0,0,2.7418,2.7424,2.7467,2.7466,2.7465,2.7489,2.7494,2.7538,2.7478,2.7472,2.7472,2.7469,2.7504,2.7508,2.752,2.7584,2.7585,2.7526,2.7528,2.7529,2.753,0,0,0,0,0,0,0,2.7415,2.7422,2.7494,2.7467,2.7466,2.7458,2.7461,2.7502,2.7501,2.7472,2.747,2.7474,2.7503,2.7516,2.752,2.7586,2.7525,2.7529,2.7531,2.7532,2.7711,2.7714,0,0,0,0,0,0,2.7414,2.742,2.7493,2.7495,2.7435,2.7461,2.7465,2.7484,2.75,2.75,2.7476,2.7472,2.7511,2.7516,2.7521,2.7605,2.7529,2.7533,2.7535,2.7709,2.7712,2.7715,0,0,0,0,0,0,2.7412,2.7421,2.7491,2.7457,2.7465,2.7465,2.7487,2.7486,2.7498,2.7503,2.7502,2.749,2.751,2.7516,2.7568,2.7605,2.7534,2.7538,2.7706,2.771,2.7713,2.777,0,0,0,0,0,0,2.7409,2.742,2.7445,2.7458,2.7467,2.7537,2.7489,2.7488,2.7505,2.75,2.7515,2.7516,2.7508,2.7563,2.7572,2.7609,2.754,2.7702,2.7707,2.7712,2.7764,2.7775,2.7784,0,0,0,0,0,2.7406,2.7459,2.7446,2.7455,2.7498,2.7539,2.7544,2.7535,2.7508,2.7534,2.7537,2.7515,2.7599,2.7569,2.7578,2.7617,2.77,2.7706,2.7712,2.776,2.7773,2.7784,0,0,0,0,0,0,2.7449,2.746,2.7446,2.7505,2.7522,2.7532,2.7564,2.7548,2.7572,2.7567,2.7554,2.7558,2.7614,2.762,2.7586,2.7685,2.7645,2.7654,2.7679,2.7691,2.7701,2.7699,2.7543,0,0,0,0,0,2.7466,2.7498,2.7505,2.7556,2.7565,2.7564,2.7581,2.7572,2.7589,2.7596,2.7602,2.762,2.7651,2.7671,2.7699,2.7765,2.7769,2.7797,2.7806,2.7814,2.7822,2.7861,2.7874,2.7734,2.7734,2.7734,0,0,2.75,2.751,2.7531,2.7565,2.7577,2.7612,2.7569,2.7607,2.7633,2.7601,2.7651,2.7657,2.7676,2.7736,2.7763,2.7743,2.7862,2.7822,2.7828,2.7831,2.7868,2.7881,2.7893,2.7738,2.7737,2.7736,0,0,2.7581,2.759,2.7636,2.7649,2.7668,2.7667,2.7678,2.7692,2.7695,2.7745,2.7723,2.7754,2.7806,2.7822,2.7836,2.7927,2.7909,2.7936,2.7988,2.8026,2.8037,2.8047,2.8082,2.8094,2.7944,2.7944,2.7944,0,2.7621,2.7672,2.7661,2.7701,2.7718,2.7692,2.7739,2.7753,2.778,2.7793,2.777,2.7838,2.7848,2.7914,2.7936,2.7948,2.7962,2.7935,2.8036,2.8046,2.8055,2.8088,2.8101,2.7947,2.7947,2.7946,2.7946,0,2.7723,2.7758,2.7793,2.7821,2.7842,2.7885,2.7882,2.7905,2.7895,2.7897,2.7951,2.7963,2.7995,2.8009,2.7999,2.8074,2.8062,2.8038,2.7998,2.8072,2.8103,2.8116,2.7952,2.7951,2.795,2.7949,0,0,2.7831,2.7854,2.7868,2.7882,2.7902,2.793,2.7973,2.8005,2.8026,2.8046,2.8084,2.8131,2.811,2.8127,2.8119,2.8152,2.8227,2.8124,2.8125,2.8145,2.8314,2.8333,2.8348,2.8215,2.8217,2.8219,2.8313,0,2.7914,2.7989,2.7982,2.8054,2.8089,2.8066,2.8104,2.8122,2.8126,2.8156,2.816,2.8195,2.8163,2.8174,2.8205,2.8211,2.8261,2.8204,2.8252,2.8254,2.825,2.8364,2.8384,2.8472,2.8325,2.8327,2.8329,0,2.8021,2.8047,2.8123,2.8141,2.8156,2.819,2.8221,2.8249,2.827,2.8271,2.8291,2.8278,2.8324,2.8283,2.8347,2.8309,2.8328,2.8334,2.8337,2.8343,2.8297,2.8375,2.8499,2.8514,2.8347,2.8346,2.8344,0,2.8096,2.815,2.8203,2.8215,2.8237,2.8263,2.8273,2.8291,2.8312,2.8339,2.8353,2.8384,2.8402,2.8427,2.8425,2.8394,2.8491,2.8449,2.8495,2.8495,2.8517,2.8516,2.8649,2.8526,2.8526,2.8526,2.8526,0,2.8191,2.8239,2.8237,2.827,2.8325,2.8316,2.8371,2.8378,2.8395,2.8431,2.8412,2.8446,2.8439,2.8473,2.8471,2.8527,2.8534,2.8537,2.8537,2.854,2.854,2.8554,2.8548,2.8529,2.8529,2.8528,2.8527,0,2.8284,2.8285,2.8342,2.8359,2.8364,2.8404,2.8419,2.8451,2.8454,2.85,2.851,2.8515,2.8554,2.8554,2.8598,2.8597,2.8666,2.8657,2.866,2.8659,2.8706,2.8703,2.8854,2.8875,2.8736,2.8738,2.8739,0,2.8346,2.8383,2.8405,2.8427,2.844,2.8476,2.8498,2.8492,2.8516,2.8544,2.8573,2.8611,2.8642,2.8706,2.8715,2.875,2.8743,2.8794,2.8748,2.8752,2.8747,2.8746,2.8751,2.8803,2.8805,2.8806,2.8807,0,2.8456,2.8455,2.8487,2.8521,2.8548,2.8573,2.8597,2.8617,2.8614,2.8642,2.8683,2.8706,2.8753,2.8793,2.8827,2.8839,2.8824,2.8821,2.8834,2.8839,2.8841,2.8844,2.8687,2.8818,2.8817,2.8816,2.8815,2.8815,2.8537,2.857,2.8592,2.8629,2.8647,2.867,2.8703,2.871,2.8744,2.8783,2.8777,2.8824,2.8846,2.8891,2.8906,2.8944,2.8926,2.8944,2.8949,2.8954,2.8961,2.8833,2.8949,2.8949,2.8949,2.8949,2.8948,0,2.8649,2.8662,2.8697,2.8732,2.8762,2.8745,2.8771,2.8798,2.8839,2.8861,2.8892,2.8941,2.898,2.8992,2.903,2.9058,2.9052,2.9068,2.9067,2.9071,2.8973,2.8959,2.9072,2.9072,2.9072,2.9072,2.9072,2.9072,2.8711,2.8767,2.877,2.8835,2.8848,2.8894,2.8911,2.8934,2.8952,2.9007,2.904,2.9047,2.9067,2.9106,2.9142,2.9145,2.9161,2.9181,2.9181,2.909,2.9077,2.9065,2.9053,2.9183,2.9184,2.9276,2.9277,2.9277]},{"header":{"parameterUnit":"m.s-1","parameterCategory":1,"la1":30.2991,"la2":30.254,"lo1":-89.0895,"lo2":-89.0444,"dy":0.0017,"dx":0.0017,"nx":28,"ny":28,"refTime":"2025-07-21T21:00:00:Z","depth":0,"parameterNumber":3,"parameterNumberName":"V-component_of_WINDS"},"data":[0,0,0,0,0,0,0,0,0,0,0,0,0,0,0,0,0,0,0,0,0,0,0,0,0,0,0,0,0,0,0,0,0,0,0,0,0,0,0,0,0,0,0,0,0,0,0,0,0,0,0,0,0,0,0,0,0,0,-2.6983,-2.6984,0,-2.7048,-2.7049,-2.7049,-2.7075,-2.7075,-2.7075,-2.7075,-2.7138,-2.714,-2.7142,0,0,0,0,0,0,0,0,0,0,0,0,0,-2.6882,-2.6884,-2.6983,-2.6984,-2.6985,-2.7048,-2.7049,-2.7049,-2.7075,-2.7075,-2.7075,-2.7075,-2.7138,-2.714,-2.7142,0,0,0,0,0,0,0,0,0,0,0,0,0,-2.6934,-2.6885,-2.6983,-2.7006,-2.7008,-2.7048,-2.7049,-2.705,-2.7075,-2.7075,-2.7075,-2.7075,-2.7137,-2.7139,-2.7142,-2.7163,0,0,-2.715,-2.7152,0,0,0,0,0,0,0,0,-2.6931,-2.6938,-2.7001,-2.7004,-2.7007,-2.7053,-2.7036,-2.7088,-2.7076,-2.705,-2.7075,-2.7075,-2.711,-2.7115,-2.7127,-2.7166,-2.7169,-2.7151,-2.7152,-2.7153,-2.7154,0,0,0,0,0,0,0,-2.6928,-2.6935,-2.7009,-2.7002,-2.7006,-2.7012,-2.7019,-2.7046,-2.708,-2.7052,-2.7054,-2.7062,-2.7111,-2.7125,-2.7129,-2.717,-2.7151,-2.7153,-2.7155,-2.7156,-2.7233,-2.7233,0,0,0,0,0,0,-2.6921,-2.6932,-2.7007,-2.7011,-2.6968,-2.7014,-2.7022,-2.7039,-2.708,-2.7086,-2.7062,-2.7063,-2.712,-2.7126,-2.7131,-2.7161,-2.7153,-2.7156,-2.7158,-2.7232,-2.7233,-2.7233,0,0,0,0,0,0,-2.6918,-2.6927,-2.7004,-2.6972,-2.6982,-2.7016,-2.7034,-2.704,-2.7053,-2.7087,-2.7093,-2.7069,-2.712,-2.7127,-2.7156,-2.7163,-2.7157,-2.716,-2.7232,-2.7232,-2.7233,-2.7219,0,0,0,0,0,0,-2.6915,-2.6926,-2.6934,-2.6972,-2.6984,-2.7028,-2.7035,-2.7041,-2.7058,-2.706,-2.7096,-2.7101,-2.7121,-2.7152,-2.7159,-2.7167,-2.7162,-2.7231,-2.7232,-2.7233,-2.7219,-2.7219,-2.7219,0,0,0,0,0,-2.6912,-2.6926,-2.6934,-2.6943,-2.6995,-2.7028,-2.7035,-2.7057,-2.7059,-2.7068,-2.709,-2.71,-2.7162,-2.7155,-2.7162,-2.7172,-2.7231,-2.7232,-2.7233,-2.7219,-2.7219,-2.7219,0,0,0,0,0,0,-2.6886,-2.6931,-2.6941,-2.6968,-2.6994,-2.7032,-2.7044,-2.7056,-2.7082,-2.7082,-2.7108,-2.7116,-2.7143,-2.716,-2.7152,-2.7196,-2.7197,-2.72,-2.7184,-2.7184,-2.7184,-2.718,-2.7164,0,0,0,0,0,-2.6884,-2.6907,-2.6946,-2.6966,-2.6979,-2.7009,-2.7024,-2.704,-2.7068,-2.7078,-2.7103,-2.7128,-2.7154,-2.717,-2.7195,-2.7222,-2.7231,-2.7232,-2.7232,-2.7232,-2.7234,-2.7252,-2.7254,-2.7236,-2.7236,-2.7236,0,0,-2.6879,-2.6907,-2.6919,-2.6962,-2.6984,-2.7008,-2.7018,-2.7042,-2.7061,-2.7082,-2.7111,-2.713,-2.7161,-2.7189,-2.7203,-2.7204,-2.7241,-2.7233,-2.7233,-2.7235,-2.7253,-2.7255,-2.7257,-2.7237,-2.7237,-2.7237,0,0,-2.6883,-2.6905,-2.6926,-2.6949,-2.6984,-2.7004,-2.7009,-2.7047,-2.7061,-2.7091,-2.7108,-2.713,-2.7173,-2.7195,-2.7212,-2.7228,-2.724,-2.7236,-2.7236,-2.7254,-2.7255,-2.7256,-2.7264,-2.7266,-2.7237,-2.7237,-2.7237,0,-2.6872,-2.6909,-2.6935,-2.696,-2.6979,-2.7001,-2.7023,-2.7044,-2.7084,-2.7096,-2.7098,-2.7155,-2.7176,-2.7212,-2.7217,-2.7229,-2.7236,-2.7231,-2.7253,-2.7254,-2.7256,-2.7264,-2.7266,-2.7237,-2.7237,-2.7237,-2.7237,0,-2.6896,-2.6922,-2.6935,-2.6975,-2.6996,-2.7018,-2.7048,-2.7066,-2.7081,-2.7102,-2.7134,-2.7161,-2.7194,-2.7204,-2.7217,-2.7242,-2.7242,-2.7248,-2.7249,-2.7257,-2.7265,-2.7268,-2.7236,-2.7236,-2.7236,-2.7237,0,0,-2.6882,-2.694,-2.6945,-2.6965,-2.7006,-2.7026,-2.7052,-2.7085,-2.7101,-2.7128,-2.7151,-2.7188,-2.7195,-2.7214,-2.7231,-2.7246,-2.726,-2.725,-2.7252,-2.7253,-2.7292,-2.7288,-2.7291,-2.7268,-2.7269,-2.7269,-2.729,0,-2.6893,-2.694,-2.6965,-2.7001,-2.7027,-2.7051,-2.7073,-2.7101,-2.7122,-2.7147,-2.7169,-2.7196,-2.7202,-2.7215,-2.7231,-2.7255,-2.7269,-2.7254,-2.729,-2.7291,-2.7282,-2.7295,-2.729,-2.7308,-2.7293,-2.7294,-2.7294,0,-2.691,-2.694,-2.6979,-2.7021,-2.7033,-2.7052,-2.7087,-2.711,-2.7143,-2.7158,-2.7181,-2.7199,-2.7227,-2.7227,-2.7268,-2.7257,-2.7274,-2.7288,-2.7289,-2.7294,-2.7293,-2.7301,-2.7314,-2.7317,-2.7299,-2.7298,-2.7298,0,-2.6899,-2.6949,-2.698,-2.6996,-2.7045,-2.7059,-2.7079,-2.7112,-2.7132,-2.7162,-2.7176,-2.7208,-2.7226,-2.7251,-2.7277,-2.7275,-2.7316,-2.7318,-2.733,-2.7329,-2.7337,-2.7336,-2.7354,-2.7346,-2.7346,-2.7346,-2.7346,0,-2.6908,-2.6931,-2.6976,-2.6995,-2.7023,-2.7053,-2.7079,-2.7102,-2.7132,-2.7156,-2.7178,-2.72,-2.7233,-2.726,-2.728,-2.7312,-2.7319,-2.7333,-2.7338,-2.7331,-2.733,-2.7342,-2.7342,-2.7347,-2.7347,-2.7346,-2.7346,0,-2.6899,-2.693,-2.6965,-2.701,-2.7022,-2.7041,-2.7079,-2.7099,-2.7122,-2.7153,-2.7162,-2.7198,-2.7232,-2.7261,-2.7303,-2.7317,-2.735,-2.7356,-2.734,-2.7343,-2.7354,-2.7353,-2.7381,-2.7387,-2.7374,-2.7374,-2.7374,0,-2.6903,-2.6922,-2.697,-2.6989,-2.701,-2.7039,-2.706,-2.7092,-2.7113,-2.7154,-2.717,-2.7205,-2.7234,-2.7286,-2.7316,-2.735,-2.7358,-2.7366,-2.7363,-2.7356,-2.736,-2.7359,-2.7362,-2.7365,-2.7365,-2.7365,-2.7365,0,-2.6907,-2.6922,-2.6952,-2.6989,-2.7015,-2.7045,-2.7075,-2.7089,-2.7126,-2.7149,-2.7185,-2.7208,-2.7254,-2.7289,-2.7327,-2.7348,-2.7364,-2.7366,-2.7371,-2.7364,-2.7355,-2.7362,-2.7341,-2.7365,-2.7365,-2.7365,-2.7365,-2.7365,-2.6905,-2.6925,-2.6963,-2.6997,-2.7024,-2.7053,-2.7075,-2.7103,-2.7133,-2.7174,-2.719,-2.7226,-2.7262,-2.7315,-2.7337,-2.7366,-2.7369,-2.7375,-2.7377,-2.7378,-2.7378,-2.735,-2.7373,-2.7373,-2.7373,-2.7373,-2.7373,0,-2.6912,-2.6938,-2.6969,-2.7013,-2.7041,-2.7055,-2.709,-2.7112,-2.7144,-2.7177,-2.7207,-2.7249,-2.7284,-2.7319,-2.7356,-2.7373,-2.7381,-2.7382,-2.7381,-2.7386,-2.7373,-2.7366,-2.7375,-2.7375,-2.7375,-2.7375,-2.7375,-2.7375,-2.6918,-2.6953,-2.6973,-2.7022,-2.7049,-2.7086,-2.7105,-2.7133,-2.716,-2.7206,-2.7236,-2.7259,-2.7293,-2.7334,-2.7368,-2.7377,-2.739,-2.7389,-2.74,-2.7387,-2.7387,-2.7386,-2.738,-2.7392,-2.7392,-2.7412,-2.7412,-2.7412]}]]